Theta_e
311 313 315 317 313 312 315 317 323 341 341 337 342 342 343 343 344 344 342 341 338 334 325 325 330 336 335 332 326 327 329 330 329 326 319 316 314 312 311 310 308 308 309 309 310 311 311 311 311
311 318 318 319 311 312 313 326 340 336 339 333 336 341 342 344 342 342 342 341 339 331 326 328 330 333 332 326 327 330 331 330 325 318 314 313 311 311 310 308 309 310 311 311 311 310 309 309 309
313 316 316 309 309 312 316 330 339 337 336 335 334 335 338 340 342 342 341 340 335 328 329 329 331 330 327 329 330 331 331 327 318 314 313 310 311 310 309 309 311 311 311 310 310 309 310 311 310
315 316 316 311 311 314 316 330 334 333 334 334 332 332 334 336 340 341 341 340 336 330 328 328 328 329 330 331 331 331 328 318 314 313 309 310 311 309 310 311 311 311 310 310 310 312 313 313 313
315 316 311 311 312 316 333 332 334 332 333 332 332 331 334 337 339 340 341 340 337 331 330 330 331 331 332 331 331 329 319 315 314 310 310 311 310 311 311 312 311 311 310 311 312 313 313 314 314
316 315 310 311 315 332 332 331 331 330 331 330 331 330 331 330 337 339 338 338 335 333 332 332 332 332 332 331 327 319 315 313 312 309 311 311 312 312 312 311 311 311 312 313 313 313 314 314 314
314 311 312 313 316 332 332 332 330 331 329 328 331 333 331 328 335 336 336 336 332 328 327 328 331 333 331 326 319 316 313 313 310 311 312 312 313 312 312 312 311 311 312 313 314 314 314 315 320
316 310 313 314 325 331 331 332 330 329 328 327 327 334 335 331 331 331 332 331 331 327 325 329 331 331 326 320 316 314 314 312 311 313 313 313 313 313 314 312 312 312 312 313 314 315 316 321 321
316 312 312 318 332 331 329 328 327 326 328 328 329 332 335 334 331 332 330 328 328 327 330 328 330 326 320 316 314 314 313 312 314 314 315 317 319 323 320 324 319 315 314 315 321 322 321 321 320
314 311 314 327 327 329 328 328 328 328 328 331 334 328 335 334 330 331 330 327 325 326 331 329 324 321 316 313 313 314 314 315 316 324 326 322 326 324 326 326 325 321 323 323 323 322 322 322 321
315 313 320 327 326 326 326 328 326 327 327 327 334 332 333 333 326 330 327 325 325 329 329 327 326 317 314 313 315 318 320 318 325 327 328 326 325 324 327 327 325 323 323 323 322 321 321 321 320
315 317 321 324 326 327 326 324 326 326 325 326 331 333 332 331 327 328 327 324 330 331 330 328 329 326 321 318 319 322 323 324 323 329 329 328 326 327 325 326 324 323 323 322 322 322 321 320 319
316 317 321 327 326 327 326 324 325 326 325 330 332 334 334 332 332 328 329 330 329 330 329 328 327 326 323 325 326 328 328 328 326 324 325 324 323 326 324 322 325 324 324 322 321 321 320 319 316
321 321 322 324 323 324 326 325 322 323 325 330 335 334 333 333 330 325 328 328 328 327 325 326 324 324 325 326 326 328 328 327 327 325 325 325 326 325 324 323 324 323 323 322 320 319 315 311 309
321 319 320 322 323 322 321 323 323 326 331 334 334 334 333 322 322 325 325 325 325 324 317 320 322 326 328 326 327 327 328 325 324 324 324 323 324 324 323 323 324 323 321 319 315 310 308 307 303
319 319 320 321 324 324 322 326 323 325 329 332 331 332 329 324 324 324 325 325 324 324 319 317 324 327 329 326 324 326 326 324 323 321 320 320 322 322 322 322 320 316 311 309 309 308 305 302 300
318 318 318 319 324 324 323 324 323 326 329 327 327 324 323 323 323 325 326 325 326 327 323 326 326 326 327 326 325 323 321 318 319 319 319 318 316 314 311 310 309 309 309 309 307 305 302 302 301
319 319 318 317 320 323 322 320 320 326 327 325 324 322 321 321 323 325 328 328 328 328 326 326 327 327 326 324 321 321 322 321 319 318 318 313 310 309 309 309 310 309 308 307 305 304 303 302 301
318 319 317 318 318 319 322 320 321 323 324 323 323 322 321 321 322 324 328 329 328 329 329 329 328 328 325 323 322 323 324 324 321 318 314 310 310 310 310 310 309 308 307 306 303 302 302 301 302
319 319 321 320 318 317 316 317 318 320 323 324 322 321 321 321 322 322 324 329 331 331 330 330 329 327 326 324 324 324 321 320 318 316 311 311 311 310 310 309 309 308 307 305 301 300 301 302 301
323 323 321 322 321 319 319 317 318 319 322 325 324 323 322 322 325 326 326 329 332 332 332 331 330 327 325 326 324 321 319 317 315 312 312 312 311 311 310 310 308 307 305 302 302 301 301 301 299
323 322 322 321 320 320 320 320 322 321 320 321 325 324 324 324 326 327 328 328 331 332 332 330 329 328 325 326 324 318 316 314 313 315 315 314 313 313 310 309 307 305 304 304 303 302 301 301 300
323 321 321 323 322 321 321 321 321 321 322 321 321 326 326 326 326 328 329 330 331 332 331 330 329 325 327 325 320 317 316 316 315 316 315 314 313 310 309 307 305 304 304 304 303 303 301 301 299
320 321 323 322 323 322 322 322 322 320 322 323 323 325 327 328 328 330 331 332 331 331 331 328 326 325 324 320 319 318 317 317 316 315 314 313 311 310 309 306 305 304 304 304 303 298 298 296 296
321 321 323 323 322 324 324 324 323 322 321 322 322 323 327 329 330 331 332 332 329 326 327 329 328 326 321 319 318 317 318 317 316 314 313 312 310 307 305 305 304 304 303 302 296 296 296 295 295
322 323 322 325 326 324 323 326 324 322 322 323 323 323 327 331 331 331 331 330 328 326 328 328 324 321 320 319 319 319 318 317 314 312 310 309 308 306 307 305 304 304 300 297 296 296 296 295 296
323 323 323 322 323 319 319 321 323 322 322 324 323 324 330 329 329 328 330 329 329 327 322 321 320 320 320 319 319 319 318 317 314 311 309 307 306 305 304 303 302 299 296 295 295 295 295 295 296
321 321 322 319 319 320 319 320 323 322 322 322 324 328 328 328 327 325 327 326 325 324 322 321 320 320 319 319 318 318 317 314 309 307 307 307 304 303 303 300 297 296 295 295 295 295 295 296 296
320 320 320 319 321 320 320 318 319 320 320 319 322 328 328 327 326 323 323 322 321 321 321 321 320 320 319 319 318 317 314 311 309 307 305 303 302 301 299 297 297 296 295 295 295 295 295 295 295
320 320 321 317 320 319 315 318 318 317 318 320 320 326 328 327 326 324 322 320 320 320 321 321 321 320 319 317 315 313 310 308 307 304 302 302 300 298 298 297 296 295 294 295 294 294 293 292 292
Wind_Speed
5 1 3 4 2 3 5 8 3 2 5 11 21 21 14 13 4 5 26 22 22 29 26 23 26 26 24 22 21 19 16 15 15 12 10 11 12 13 13 15 15 15 15 15 16 17 17 18 18
5 4 9 5 2 2 6 4 5 4 6 10 19 11 14 6 13 18 20 18 22 34 32 29 28 28 24 20 19 17 16 15 13 11 11 12 12 13 14 14 14 13 14 16 18 19 21 21 21
4 6 4 4 3 7 4 1 5 5 7 10 7 13 5 3 13 10 24 25 31 35 34 30 28 27 25 19 17 16 14 12 12 12 12 12 13 13 13 13 12 13 16 18 20 22 22 23 24
2 4 6 1 10 16 14 7 17 16 17 12 14 6 6 3 7 16 26 27 31 36 36 32 28 26 23 19 16 15 13 12 11 12 12 13 13 13 13 12 13 14 16 18 20 20 20 21 21
7 7 2 4 11 9 15 10 21 7 13 15 9 4 6 8 11 19 24 26 38 35 35 31 27 25 21 18 17 15 13 12 12 12 13 13 13 13 12 13 14 14 16 16 17 17 17 18 18
6 3 2 6 12 9 8 20 11 15 18 12 12 10 4 7 9 13 15 17 33 27 30 27 22 20 20 18 16 14 13 13 12 13 13 13 12 12 12 13 13 13 13 13 13 13 13 13 13
9 2 7 11 16 6 8 10 5 5 10 6 9 5 12 14 15 15 15 20 28 26 23 22 18 19 18 17 15 14 14 13 13 14 14 13 13 13 12 12 11 11 10 10 9 10 10 10 13
18 4 9 10 5 3 3 5 7 8 4 4 1 7 7 17 19 18 13 18 22 30 27 19 19 19 17 16 14 14 14 14 15 15 15 14 14 13 12 10 9 8 7 7 8 10 8 8 8
18 2 7 5 1 5 10 6 8 9 13 6 7 8 14 20 20 22 24 28 26 23 24 24 21 18 17 15 16 15 15 15 16 17 16 14 13 13 12 10 8 7 7 7 9 10 5 5 5
5 1 8 3 7 6 4 9 5 4 3 6 14 17 19 25 28 30 29 29 27 28 21 20 18 17 17 17 17 16 16 18 18 16 14 10 9 8 7 5 8 9 8 6 8 5 4 4 7
16 6 4 3 4 14 14 11 12 13 4 7 19 24 28 30 30 33 39 22 28 22 20 19 18 19 17 17 19 19 19 20 19 14 13 7 6 4 1 3 10 6 5 5 5 4 3 9 12
5 15 5 12 13 17 10 18 11 11 6 3 16 18 23 33 29 31 25 31 28 27 23 20 18 18 18 19 18 16 14 13 15 11 14 12 12 9 5 5 4 6 5 8 6 6 8 10 10
6 8 2 19 15 21 21 10 10 17 23 10 18 19 20 26 28 32 28 29 29 29 26 26 22 22 16 18 19 19 19 17 17 14 12 10 10 9 7 6 9 11 10 10 10 11 12 14 15
14 18 13 19 18 14 14 9 4 1 15 23 23 23 24 30 33 31 29 34 30 24 24 28 24 22 23 24 21 24 20 15 12 9 11 12 10 9 7 8 11 11 10 10 10 12 14 15 15
11 7 5 4 16 4 10 7 4 10 17 28 28 26 27 29 34 37 38 32 26 22 25 28 28 28 23 25 23 18 17 13 13 11 10 5 7 7 8 8 9 8 10 12 13 14 13 14 17
3 5 4 4 15 6 10 8 9 9 20 23 24 29 31 37 36 37 28 26 24 19 22 27 30 26 24 21 22 21 16 15 13 10 5 3 6 6 5 5 5 6 10 13 14 16 18 19 19
3 4 4 1 27 9 7 6 14 15 21 22 25 31 37 33 31 26 27 29 25 18 23 27 26 25 22 19 18 20 19 11 10 5 2 6 6 5 4 3 3 6 8 11 14 18 19 20 22
3 3 5 7 12 20 13 7 8 28 27 24 24 26 28 30 30 27 27 27 21 22 24 25 25 24 23 24 23 18 13 11 12 10 6 6 4 1 2 4 6 7 9 10 15 15 17 22 21
8 13 10 7 9 10 15 10 11 20 24 25 30 28 28 27 28 27 27 27 31 28 31 25 25 26 24 23 19 18 15 14 13 10 9 7 5 1 3 5 8 8 9 11 13 16 21 21 21
9 12 1 8 5 7 6 12 12 10 18 28 29 30 31 27 27 28 24 28 32 33 32 26 23 21 20 18 16 14 13 11 10 11 10 7 5 3 4 4 8 12 14 16 18 19 20 20 22
7 4 2 3 4 2 3 2 2 7 15 28 34 33 31 32 32 30 27 21 30 35 31 24 22 16 17 16 9 12 15 16 16 14 8 7 7 5 8 15 15 15 17 17 18 19 21 23 26
8 13 2 0 3 2 4 2 1 4 9 8 22 29 34 33 30 29 28 25 21 28 26 19 16 14 20 17 18 18 21 18 10 4 7 8 7 8 12 14 16 17 16 17 18 20 24 24 24
7 11 6 5 2 4 2 4 6 5 5 5 13 31 37 38 38 30 30 27 24 23 18 17 15 21 18 23 19 18 12 11 14 15 14 10 6 10 12 12 10 11 14 16 19 24 24 25 27
3 2 4 5 3 2 10 5 4 7 17 4 9 10 28 35 37 33 31 29 27 26 25 21 24 21 21 23 19 17 15 18 18 15 15 10 4 6 11 13 12 12 15 19 24 27 26 25 25
6 4 3 5 6 4 4 5 8 8 9 17 20 28 11 24 29 33 32 28 21 18 25 26 23 23 28 24 19 18 18 20 19 15 13 13 11 14 12 16 17 19 23 27 26 25 24 25 24
5 3 4 4 1 5 5 4 5 3 13 28 32 26 17 25 25 25 24 23 20 23 20 23 29 29 27 26 22 21 19 19 17 16 15 14 16 15 21 20 24 27 27 24 23 23 24 23 22
1 4 6 5 2 3 4 3 4 6 6 12 18 22 23 22 21 22 23 23 26 27 27 27 24 25 24 22 22 24 23 23 19 19 18 19 16 16 24 23 23 22 23 22 22 23 22 22 25
5 4 2 3 2 3 4 3 3 6 5 6 10 22 23 22 22 23 27 27 28 28 28 26 21 21 22 24 22 23 24 21 18 16 15 16 14 17 19 22 21 20 21 21 21 21 20 23 24
2 3 2 4 5 5 1 4 2 8 8 9 13 29 29 26 26 26 29 29 30 28 28 24 25 19 26 27 26 27 25 22 19 15 13 9 14 20 17 20 21 21 22 21 22 22 24 27 27
6 6 6 5 5 3 5 5 2 7 9 15 13 29 32 31 29 28 28 30 30 31 31 27 26 24 28 28 26 20 17 14 16 4 9 15 18 16 19 20 21 22 22 23 22 23 26 26 24
Wind_Direction
285 170 279 261 41 92 264 251 278 329 76 53 71 86 92 45 29 108 155 160 161 154 163 157 148 146 143 140 134 127 122 118 114 107 96 86 82 82 82 82 80 75 71 68 65 61 60 58 61
261 210 285 274 139 0 276 302 90 206 166 95 75 82 45 49 87 125 158 174 170 159 158 154 148 144 140 139 134 129 128 127 117 108 97 92 91 90 87 85 81 78 76 72 69 67 66 65 68
263 227 238 161 193 220 211 283 171 129 50 66 86 62 74 90 128 122 157 166 161 159 155 151 146 142 138 140 133 131 131 119 110 108 105 104 100 96 93 86 82 82 80 78 76 73 70 69 71
239 244 249 147 258 258 238 199 133 112 76 76 96 65 58 100 135 143 155 165 170 162 151 145 145 141 139 139 137 137 130 117 116 113 111 108 106 105 96 90 86 83 81 79 76 73 70 69 72
276 265 211 260 251 279 358 81 107 100 127 120 116 106 85 88 140 162 162 164 163 152 139 141 144 138 137 142 141 136 128 121 117 114 112 112 110 102 97 96 93 88 82 78 75 72 67 62 62
257 250 343 263 273 35 16 14 31 84 95 95 103 107 119 168 152 162 171 140 113 128 133 135 131 138 147 143 140 134 126 122 122 118 115 113 108 105 104 98 92 90 85 80 74 65 56 48 50
228 97 257 278 285 24 341 30 7 19 84 56 125 98 144 153 152 149 127 146 139 128 123 121 146 154 145 143 138 132 126 128 125 120 117 114 114 108 98 95 91 87 79 71 59 49 41 42 47
249 120 281 280 351 127 69 58 53 42 330 170 235 167 155 154 150 150 133 125 154 140 137 150 158 152 147 141 135 133 130 130 127 121 118 114 108 100 84 79 72 71 64 51 39 32 39 55 47
275 277 275 305 77 171 213 150 175 87 273 264 186 159 152 161 155 141 133 129 137 139 151 161 165 152 151 141 139 137 134 131 126 122 118 115 105 95 70 70 62 55 43 44 51 48 61 30 21
234 140 249 148 159 171 162 32 29 326 256 189 124 135 146 162 155 146 139 136 132 149 158 149 152 154 149 147 140 136 134 131 125 120 114 97 98 89 72 56 52 64 62 71 53 37 6 346 323
252 214 184 118 67 109 97 81 27 328 253 186 142 144 176 168 154 144 124 123 162 156 158 141 141 140 146 143 138 133 133 132 132 127 124 118 117 123 67 84 71 70 74 82 102 119 273 294 307
235 252 142 173 131 123 111 114 119 242 250 14 138 192 154 163 165 152 140 153 155 157 160 145 151 136 133 133 135 135 144 131 143 147 149 166 183 180 202 125 118 145 183 165 190 235 270 293 304
218 247 81 151 138 123 141 197 126 223 236 182 130 141 138 147 146 150 153 154 155 167 165 161 159 150 136 138 147 150 160 167 169 169 179 196 195 175 182 214 203 205 217 244 270 277 279 294 303
57 64 65 107 119 120 150 201 182 356 128 165 147 151 150 150 149 143 161 165 176 179 172 172 164 154 157 165 163 173 171 179 176 183 196 209 201 210 237 231 216 226 251 261 276 288 302 311 312
83 71 69 52 102 67 51 358 331 154 177 159 163 156 158 154 146 152 169 169 170 166 159 164 157 165 170 176 176 180 182 198 207 206 209 214 220 221 234 238 234 252 264 283 299 305 316 317 321
73 64 44 150 86 61 105 270 285 225 195 168 160 145 151 148 151 159 162 166 169 167 163 156 168 175 180 187 191 193 188 201 204 204 193 185 216 214 213 230 249 275 296 301 315 324 325 329 332
17 77 287 307 132 183 175 247 250 204 150 138 140 143 150 157 154 159 169 174 178 174 165 170 181 184 186 191 189 181 188 206 207 203 245 168 176 176 201 239 288 296 308 313 321 324 329 333 334
250 216 246 218 201 179 200 223 169 169 157 154 151 151 153 155 159 163 174 181 182 180 181 185 192 194 188 184 181 191 214 226 232 249 243 180 188 217 275 317 336 319 326 323 324 331 328 332 337
243 239 235 255 190 174 200 180 179 179 161 163 168 172 169 168 168 165 171 182 178 186 188 194 196 195 192 195 206 222 235 235 238 219 197 194 196 174 307 302 310 318 311 322 325 321 325 333 333
255 282 309 343 233 157 159 194 184 179 173 171 174 175 170 171 180 171 168 181 186 189 192 201 202 201 198 207 221 227 223 200 197 190 208 223 257 256 241 268 291 299 305 319 321 323 326 325 325
328 336 304 197 324 11 63 97 309 206 175 178 181 182 181 176 170 171 176 167 189 194 196 207 208 206 197 191 188 180 175 185 194 192 237 249 238 275 315 315 312 311 317 316 321 326 323 317 318
220 265 199 169 81 228 53 228 278 292 209 187 182 184 181 180 183 181 185 196 197 202 204 206 208 214 186 177 196 187 187 192 204 195 234 236 250 302 312 315 312 310 305 307 313 313 312 310 309
205 221 193 195 199 352 312 107 266 218 254 281 211 188 190 194 191 186 187 195 200 206 209 219 231 173 180 181 204 192 195 210 213 218 226 220 253 300 301 301 280 269 281 288 294 302 303 303 305
92 18 55 85 143 186 227 118 290 214 225 216 253 221 191 185 184 185 189 197 205 213 228 210 177 175 176 185 191 195 204 208 191 184 187 203 231 254 236 240 240 253 271 283 292 299 297 301 302
57 50 359 8 10 240 341 125 235 231 214 206 211 238 174 172 182 183 188 193 194 192 177 182 186 184 188 186 192 203 204 193 201 206 210 209 230 225 245 259 266 277 287 293 296 302 303 304 302
58 108 153 149 202 281 162 235 250 182 210 213 207 219 197 164 168 174 184 183 184 178 187 187 185 193 197 198 198 201 210 206 199 201 210 220 232 253 267 269 278 283 289 296 300 300 302 305 296
147 84 269 131 304 57 253 33 18 96 66 129 179 200 161 167 175 176 178 184 180 178 183 184 193 202 207 210 215 222 227 227 227 228 230 234 240 272 266 271 278 285 292 296 299 301 303 294 292
166 194 184 334 157 261 315 333 185 138 149 134 148 163 168 176 182 188 190 189 187 191 196 195 201 215 218 214 228 230 233 222 216 231 244 264 268 255 261 276 285 292 293 296 297 297 295 293 283
250 260 267 153 143 172 167 282 173 173 158 180 189 179 180 185 191 194 197 200 203 206 208 213 207 221 217 213 222 228 221 221 230 263 284 251 260 273 271 286 291 293 296 295 292 290 292 292 294
178 195 180 123 265 190 147 269 170 146 173 180 203 187 189 192 194 199 203 202 203 204 204 208 206 210 213 209 211 210 209 226 269 241 226 261 274 264 278 289 291 296 298 299 301 298 300 299 299